• Join FlightAware (Why Join?)
  • Login
  • US Flag GB Flag 
01:50 EDT


 

Airport Tracker/Info


-or-


 

Live Flight TrackerFlight Track Log ✈ RPA3392 ✈ 03-May-2013 ✈ KMSP - KDCA

Flight Track Log - Related Links

Times and Time Zones

All times are in EDT time to prevent confusion due to time zone crossing. See the RPA3392 flight status page for this flight to view local times or setup timezone preferences in your user account.

Time Position Orientation Groundspeed Altitude Reporting Facility
EDT Latitude Longitude Course Direction KTS MPH feet Rate Location/Type
18:17 44.9000 -93.2333 117° Southeast 159 183 2,000  Level Minneapolis TRACON
18:18 44.9375 -93.2469 346° North 156 180 3,500 1,860 Climbing Minneapolis Center
18:19 44.7556 -92.7614 111° Southeast  Level Estimated
18:19 44.9856 -93.2208 21° North 205 236 5,600  Level Minneapolis Center
18:20 44.7131 -92.6083 113° Southeast  Level Estimated
18:20 44.9678 -93.1456 108° East 259 298 7,300  Level Minneapolis Center
18:21 44.6704 -92.4555 125° Southeast  Level Estimated
18:21 44.9200 -93.0383 122° Southeast 266 306 10,800  Level Minneapolis Center
18:22 44.6274 -92.3030 117° Southeast  Level Estimated
18:22 44.8797 -92.9356 119° Southeast 295 339 13,400  Level Minneapolis Center
18:23 44.8378 -92.8300 119° Southeast 307 353 15,800 2,100 Climbing Minneapolis Center
18:24 44.7931 -92.7175 119° Southeast 328 377 17,800 2,160 Climbing Minneapolis Center
18:25 44.7367 -92.5825 120° Southeast 333 383 20,300 2,160 Climbing Minneapolis Center
18:26 44.6903 -92.4647 119° Southeast 341 392 22,300 1,800 Climbing Minneapolis Center
18:27 44.6411 -92.3447 120° Southeast 350 403 24,100 1,620 Climbing Minneapolis Center
18:28 44.5911 -92.2208 120° Southeast 361 415 25,700 1,380 Climbing Minneapolis Center
18:29 44.5406 -92.0931 119° Southeast 372 428 27,000 1,200 Climbing Minneapolis Center
18:30 44.4858 -91.9636 121° Southeast 385 443 28,300 1,140 Climbing Minneapolis Center
18:31 44.4442 -91.8233 113° Southeast 390 449 29,400 1,200 Climbing Minneapolis Center
18:32 44.3983 -91.6486 110° East 399 459 30,800 1,140 Climbing Minneapolis Center
18:33 44.3672 -91.5339 111° Southeast 400 460 31,800 1,020 Climbing Minneapolis Center
18:34 44.3208 -91.3606 110° East 399 459 33,000 540 Climbing Minneapolis Center
18:35 44.2808 -91.2094 110° East 404 465 33,000  Level Minneapolis Center
18:36 44.2386 -91.0539 111° Southeast 422 486 33,000  Level Minneapolis Center
18:38 44.1961 -90.8925 110° East 440 506 33,000  Level Minneapolis Center
18:39 44.1339 -90.6653 111° Southeast 450 518 33,000  Level Minneapolis Center
18:40 44.0900 -90.5097 111° Southeast 451 519 33,000  Level Minneapolis Center
18:41 44.0294 -90.2922 111° Southeast 451 519 33,000  Level Minneapolis Center
18:42 43.9836 -90.1306 111° Southeast 450 518 33,000  Level Minneapolis Center
18:43 43.9386 -89.9681 111° Southeast 450 518 33,000  Level Minneapolis Center
18:44 43.8922 -89.8081 112° Southeast 449 517 33,000  Level Minneapolis Center
18:45 43.8467 -89.6481 111° Southeast 446 513 33,000  Level Minneapolis Center
18:46 43.8078 -89.5142 112° Southeast 450 518 33,000  Level Minneapolis Center
18:47 43.7464 -89.3006 112° Southeast 448 516 33,000  Level Minneapolis Center
18:48 43.7008 -89.1411 112° Southeast 446 513 33,000  Level Minneapolis Center
18:49 43.6525 -88.9825 113° Southeast 446 513 33,000  Level Minneapolis Center
18:50 43.6058 -88.8239 112° Southeast 446 513 33,000  Level Minneapolis Center
18:50 43.5908 -88.7703 111° Southeast 447 514 33,000  Level Chicago Center
18:52 43.5425 -88.6106 113° Southeast 448 516 33,000  Level Chicago Center
18:53 43.4919 -88.4450 113° Southeast 450 518 33,000  Level Chicago Center
18:54 43.4433 -88.2811 112° Southeast 450 518 33,000  Level Chicago Center
18:55 43.3867 -88.0978 113° Southeast 447 514 33,000  Level Chicago Center
18:56 43.3375 -87.9394 113° Southeast 447 514 33,000  Level Chicago Center
18:57 43.2900 -87.7822 112° Southeast 447 514 33,000  Level Chicago Center
18:58 43.2397 -87.6239 114° Southeast 451 519 33,000  Level Chicago Center
18:59 43.1919 -87.4664 113° Southeast 449 517 33,000  Level Chicago Center
19:00 43.1419 -87.3128 114° Southeast 453 521 33,000  Level Chicago Center
19:01 43.0944 -87.1558 112° Southeast 450 518 33,000  Level Chicago Center
19:02 43.0336 -86.9669 114° Southeast 453 521 33,000  Level Chicago Center
19:03 42.9836 -86.8100 113° Southeast 454 522 33,000  Level Chicago Center
19:04 42.9342 -86.6558 114° Southeast 448 516 33,000  Level Chicago Center
19:05 42.8842 -86.5033 114° Southeast 445 512 33,000  Level Chicago Center
19:06 42.8336 -86.3497 114° Southeast 448 516 33,000  Level Chicago Center
19:07 42.7725 -86.1661 114° Southeast 450 518 33,000  Level Chicago Center
19:08 42.7222 -86.0114 114° Southeast 453 521 33,000  Level Chicago Center
19:09 42.6714 -85.8561 114° Southeast 455 524 33,000  Level Chicago Center
19:10 42.6197 -85.7017 114° Southeast 455 524 33,000  Level Chicago Center
19:11 42.5692 -85.5483 114° Southeast 450 518 33,000  Level Chicago Center
19:12 42.5072 -85.3636 114° Southeast 451 519 33,000  Level Chicago Center
19:13 42.4550 -85.2100 115° Southeast 452 520 33,000  Level Chicago Center
19:14 42.4028 -85.0561 115° Southeast 453 521 33,000  Level Chicago Center
19:15 42.3500 -84.9031 115° Southeast 452 520 33,000  Level Chicago Center
19:16 42.2967 -84.7506 115° Southeast 450 518 33,000  Level Chicago Center
19:17 42.2439 -84.6086 117° Southeast 442 509 33,000  Level Cleveland Center
19:18 42.1944 -84.4653 115° Southeast 442 509 33,000  Level Cleveland Center
19:19 42.1450 -84.3250 115° Southeast 431 496 33,000  Level Cleveland Center
19:20 42.1008 -84.2019 116° Southeast 415 478 33,000  Level Cleveland Center
19:21 42.0531 -84.0622 115° Southeast 415 478 33,000  Level Cleveland Center
19:22 42.0028 -83.9281 117° Southeast 410 472 33,000  Level Cleveland Center
19:23 41.9547 -83.7858 114° Southeast 410 472 33,000  Level Cleveland Center
19:24 41.9044 -83.6494 116° Southeast 410 472 33,000  Level Cleveland Center
19:25 41.8539 -83.5103 116° Southeast 410 472 33,000  Level Cleveland Center
19:26 41.8050 -83.3744 116° Southeast 410 472 33,000  Level Cleveland Center
19:27 41.7542 -83.2331 116° Southeast 410 472 33,000  Level Cleveland Center
19:28 41.7031 -83.0975 117° Southeast 410 472 33,000  Level Cleveland Center
19:29 41.6517 -82.9592 116° Southeast 415 478 33,000  Level Cleveland Center
19:30 41.5964 -82.8044 115° Southeast 415 478 33,000  Level Cleveland Center
19:31 41.5450 -82.6667 116° Southeast 410 472 33,000  Level Cleveland Center
19:32 41.4953 -82.5264 115° Southeast 415 478 33,000  Level Cleveland Center
19:33 41.4411 -82.3892 118° Southeast 415 478 33,000  Level Cleveland Center
19:34 41.3911 -82.2522 116° Southeast 415 478 33,000  Level Cleveland Center
19:35 41.3222 -82.1258 126° Southeast 415 478 33,000  Level Cleveland Center
19:36 41.2336 -82.0328 142° Southeast 406 467 33,000  Level Cleveland Center
19:37 41.1431 -81.9369 141° Southeast 412 474 33,000  Level Cleveland Center
19:38 41.0461 -81.8469 145° Southeast 429 494 33,000  Level Cleveland Center
19:39 40.9533 -81.7514 142° Southeast 422 486 33,000  Level Cleveland Center
19:40 40.8625 -81.6594 143° Southeast 422 486 33,000  Level Cleveland Center
19:41 40.7717 -81.5675 143° Southeast 422 486 33,000  Level Cleveland Center
19:42 40.6808 -81.4728 142° Southeast 422 486 33,000  Level Cleveland Center
19:43 40.6025 -81.3542 131° Southeast 422 486 33,000  Level Cleveland Center
19:44 40.5322 -81.2333 127° Southeast 417 480 33,000  Level Cleveland Center
19:45 40.4558 -81.1097 129° Southeast 422 486 33,000  Level Cleveland Center
19:46 40.3811 -80.9919 130° Southeast 428 493 33,000  Level Cleveland Center
19:47 40.3086 -80.8744 129° Southeast 428 493 33,000  Level Cleveland Center
19:48 40.2400 -80.7625 129° Southeast 428 493 33,000  Level Cleveland Center
19:49 40.1631 -80.6456 131° Southeast 428 493 33,000  Level Cleveland Center
19:50 40.0858 -80.5233 130° Southeast 428 493 33,000  Level Cleveland Center
19:51 40.0108 -80.4042 129° Southeast 428 493 33,000  Level Cleveland Center
19:52 39.9314 -80.2825 130° Southeast 428 493 33,000  Level Cleveland Center
19:54 39.7953 -80.0692 130° Southeast 421 484 33,000  Level Washington Center
19:55 39.7183 -79.9511 130° Southeast 421 484 33,000  Level Washington Center
19:56 39.6372 -79.8278 130° Southeast 426 490 33,000  Level Washington Center
19:57 39.5600 -79.7100 130° Southeast 432 497 33,000 -960 Level Washington Center
19:58 39.4828 -79.5900 130° Southeast 432 497 31,100 -1,020 Descending Washington Center
19:59 39.4053 -79.4703 130° Southeast 432 497 31,000 -780 Descending Washington Center
20:00 39.3236 -79.3506 131° Southeast 432 497 29,600 -1,740 Descending Washington Center
20:01 39.2467 -79.2097 125° Southeast 432 497 27,600 -2,040 Descending Washington Center
20:02 39.2322 -79.0617 97° East 409 471 25,700 -1,860 Descending Washington Center
20:03 39.2197 -78.9164 96° East 404 465 23,900 -1,740 Descending Washington Center
20:04 39.2047 -78.7764 98° East 399 459 22,200 -1,740 Descending Washington Center
20:05 39.1917 -78.6447 97° East 387 445 20,500 -1,680 Descending Washington Center
20:06 39.1783 -78.5100 97° East 382 440 18,900 -1,560 Descending Washington Center
20:07 39.1644 -78.3811 98° East 375 432 17,500 -1,440 Descending Washington Center
20:08 39.1381 -78.2597 106° East 358 412 16,100 -1,200 Descending Washington Center
20:09 39.1094 -78.1464 108° East 348 400 15,200 -1,020 Descending Washington Center
20:10 39.0806 -78.0303 108° East 337 388 14,100 -1,200 Descending Washington Center
20:11 39.0514 -77.9197 109° East 331 381 12,900 -1,200 Descending Washington Center
20:12 39.0242 -77.8147 108° East 320 368 11,700 -960 Descending Washington Center
20:13 39.0008 -77.7206 108° East 307 353 11,000 -1,020 Descending Washington Center
20:14 38.9736 -77.6156 108° East 296 341 9,800 -1,380 Descending Washington Center
20:14 38.9667 -77.5667 100° East 275 316 9,200 -1,200 Descending Potomac TRACON
20:15 38.9500 -77.4833 104° East 243 280 8,200 -1,020 Descending Potomac TRACON
20:16 38.9833 -77.4167 57° Northeast 204 235 7,200 -1,080 Descending Potomac TRACON
20:17 39.0000 -77.3500 72° East 194 223 6,100 -1,020 Descending Potomac TRACON
20:18 39.0167 -77.3000 67° East 176 203 5,200 -1,200 Descending Potomac TRACON
20:19 39.0167 -77.2500 90° East 173 199 3,700 -960 Descending Potomac TRACON
20:20 38.9833 -77.2000 131° Southeast 165 190 3,200 -540 Descending Potomac TRACON
20:21 38.9667 -77.1500 113° Southeast 162 186 2,700 -720 Descending Potomac TRACON
20:22 38.9333 -77.1167 142° Southeast 163 188 1,900 -840 Descending Potomac TRACON